HAWK-6A

Last updated on Fri Dec 29 2023 00:03:29 GMT+0000 (Coordinated Universal Time)

1 55327U 23011D 23361.87625608 .00004872 00000+0 31100-3 0 9994 2 55327 40.5006 160.3492 0005175 12.2265 347.8664 15.09223787 50850
UTC large
Height (km)
Speed (km/s)
/
Latitude / Longitude
Inclination (degrees)
Orbital Period (minutes)
Azimuth
Elevation
Range (km)
Doppler Factor

Next 0 passes for location: London (51.5072 / 0.1276)

Sorry there are no passes over London.